Theta_e
302 301 302 309 316 319 320 322 326 326 327 328 328 329 329 329 330 331 332 334 337 340 341 340 342 342 343 344 343 343 344 345 343 343 344 344 345 344 343 343 342 342 341 340 339 339 338 338 339 337 338 337 337 339 340 338 339 341 339 338 338 337 335 334 333 333 331 330 331 330 331 334 334 334 333 334 338 340 338 338 338 334 332 333 334
300 302 302 304 315 317 319 322 324 326 327 327 328 328 328 328 329 329 330 331 334 337 339 341 341 340 341 343 344 343 343 345 345 343 343 344 345 344 344 343 343 342 341 341 337 339 339 339 338 337 338 338 342 341 339 337 337 338 339 339 338 337 335 333 332 333 332 333 332 332 332 333 333 333 334 334 338 340 338 337 337 331 328 335 337
301 302 302 304 314 315 318 322 325 325 326 327 327 327 327 327 328 328 329 329 331 334 337 339 341 340 341 340 342 344 343 342 344 345 345 344 345 344 343 343 342 342 342 341 340 339 340 338 337 338 337 337 338 337 336 336 335 336 337 338 337 336 335 332 332 333 331 332 332 331 332 331 335 337 338 340 338 339 338 337 337 337 332 337 336
300 301 302 305 313 314 316 322 325 324 325 326 326 326 326 327 327 328 328 328 329 331 334 336 338 340 339 339 341 342 343 342 343 342 343 345 344 344 344 344 343 340 341 341 340 339 340 336 336 339 339 338 337 337 336 335 334 333 336 336 337 335 335 332 332 332 332 333 334 334 330 325 331 333 334 336 337 338 336 336 336 337 337 336 334
299 300 301 302 303 310 316 322 323 325 325 325 325 325 325 326 326 326 327 328 328 329 331 333 335 337 339 340 341 339 341 342 341 342 343 344 345 344 345 345 343 342 340 341 340 340 340 336 338 339 338 337 336 336 335 334 334 334 335 334 335 336 334 332 333 333 331 333 333 332 321 323 324 330 333 334 335 333 333 332 332 333 334 334 332
300 301 301 302 303 304 317 320 322 323 324 324 324 324 324 325 325 325 326 327 327 328 329 331 332 335 336 338 339 339 339 339 341 341 341 343 344 343 344 344 344 343 342 343 341 340 340 338 339 339 337 336 336 336 335 334 334 334 334 334 334 336 333 334 337 335 332 333 336 325 320 322 323 328 333 333 332 334 330 329 330 332 330 329 329
299 301 301 302 303 306 317 319 321 322 323 324 324 324 324 324 324 324 325 326 326 327 328 329 330 331 333 335 337 339 339 340 340 341 342 342 342 342 344 343 343 343 343 343 342 341 341 340 339 338 337 337 336 336 335 334 334 334 334 333 334 334 334 334 335 336 334 335 320 321 323 322 322 322 329 329 330 329 329 327 332 331 329 327 328
298 300 300 301 301 309 315 318 319 321 323 324 323 323 323 324 323 323 323 325 325 325 326 326 328 329 330 333 335 337 339 339 340 339 340 340 342 343 343 344 344 343 343 344 344 341 340 340 339 338 337 336 337 336 335 335 333 334 334 333 333 333 333 333 332 334 334 325 322 322 322 322 322 321 327 327 327 328 328 329 330 329 330 329 327
297 297 299 300 299 313 314 316 318 320 322 323 321 322 323 324 322 322 323 323 324 324 325 325 326 327 328 330 332 334 336 337 339 340 340 340 341 342 343 343 344 344 344 343 343 341 340 340 340 339 338 337 337 336 335 335 334 333 334 333 332 332 332 331 332 332 327 322 321 318 321 322 321 320 327 328 327 326 328 330 332 329 330 330 331
296 297 298 298 298 314 313 314 316 318 321 322 321 322 322 322 322 321 322 322 323 324 324 324 324 325 326 328 329 331 333 334 336 338 340 339 340 340 341 342 343 342 343 343 342 342 341 340 340 340 339 338 337 336 334 335 334 332 333 332 332 332 331 330 332 336 321 319 318 321 321 327 318 322 327 331 330 331 330 334 332 333 335 334 334
296 297 298 297 302 310 312 313 314 317 319 320 320 321 321 321 320 322 322 322 323 323 323 323 323 324 325 325 327 328 329 331 333 335 338 340 341 339 340 340 342 342 342 341 342 343 342 339 340 340 338 338 337 336 335 335 335 334 333 332 331 331 331 331 331 318 320 318 317 317 326 330 319 321 337 332 333 333 332 331 330 331 333 335 335
297 297 297 297 308 310 310 311 312 314 316 317 319 319 320 319 319 320 321 322 322 322 322 322 322 323 323 324 324 325 327 328 330 332 335 338 339 338 339 341 342 342 342 341 341 341 340 340 339 340 339 338 337 336 336 335 334 334 333 333 331 331 331 333 326 318 317 317 317 323 325 327 322 325 333 333 333 333 332 331 331 330 331 335 335
297 296 295 297 299 309 309 310 310 312 314 315 316 317 318 319 319 320 319 320 320 320 320 320 321 321 321 322 323 324 324 326 328 330 332 335 336 338 339 339 341 341 341 340 340 340 340 340 339 339 339 338 338 337 336 335 335 334 333 333 332 332 335 335 323 320 319 316 316 322 323 323 324 336 333 334 334 334 333 333 332 332 335 335 335
297 295 295 296 299 306 309 309 309 310 311 312 314 315 317 318 318 319 318 319 319 320 320 320 320 320 321 321 321 322 323 324 325 327 329 331 333 335 337 339 338 339 339 339 340 341 339 339 339 339 339 339 338 337 337 336 335 334 333 333 333 335 335 335 330 320 321 317 321 323 323 326 325 335 335 335 335 334 334 333 333 334 334 335 336
295 295 296 295 295 298 307 308 307 308 309 310 312 313 315 317 317 318 318 318 318 318 319 319 319 319 319 319 319 320 320 322 323 323 324 326 329 332 335 337 338 339 340 339 339 340 339 338 339 338 339 339 338 337 337 336 336 335 333 333 335 335 334 325 321 316 318 321 318 326 325 326 337 335 335 335 335 336 335 335 335 334 335 333 333
295 295 294 294 295 295 297 306 306 307 307 307 309 311 313 315 316 317 317 317 317 317 317 317 317 317 318 317 318 318 318 320 320 321 321 324 327 329 331 334 336 338 338 339 338 339 338 338 339 339 338 338 338 337 337 337 336 335 334 335 336 335 333 327 318 316 316 316 317 324 325 326 335 335 335 335 335 335 336 335 334 334 335 333 333
295 297 293 293 294 293 296 299 303 306 305 306 307 308 311 313 314 314 315 315 316 316 315 315 315 315 315 315 315 316 317 317 318 319 320 322 322 324 327 330 333 335 338 339 338 338 339 338 339 339 338 338 338 337 336 335 336 335 336 336 335 334 332 329 319 316 316 321 323 325 326 326 334 335 334 334 334 334 335 335 336 334 334 333 334
294 293 292 292 292 293 296 296 297 296 297 301 304 306 308 311 311 311 312 313 314 314 313 314 313 312 313 313 313 314 315 315 315 316 317 318 318 321 325 327 330 332 335 337 338 339 339 338 338 338 339 338 337 336 336 335 335 336 336 334 333 331 330 328 316 316 317 325 322 325 326 336 335 334 334 333 334 334 334 335 335 334 333 334 333
293 293 292 292 292 292 293 295 296 296 296 296 298 300 306 308 308 308 309 311 312 312 311 311 311 310 310 310 311 312 311 312 313 314 314 315 317 320 321 323 328 331 332 336 337 339 339 339 339 338 338 338 337 336 336 336 336 335 334 333 331 328 326 321 316 315 318 319 322 326 324 336 335 334 333 333 333 334 333 333 333 333 332 331 329
292 292 291 291 291 291 292 293 294 295 295 296 298 298 303 307 305 305 306 308 310 310 309 309 308 308 308 308 309 306 306 307 311 309 311 314 315 315 318 320 323 327 330 332 336 337 338 339 338 337 338 338 336 336 336 336 335 334 333 331 328 323 317 313 315 314 316 317 323 321 331 335 336 335 334 333 333 333 333 332 332 333 330 329 329
292 291 290 290 291 291 292 293 294 294 294 295 297 298 301 305 302 303 304 306 307 308 308 307 307 306 305 305 305 301 303 304 304 305 310 309 312 313 315 317 320 324 327 330 334 336 336 338 338 338 337 336 336 335 335 335 334 333 331 327 325 317 314 316 314 320 318 320 321 319 334 334 334 334 334 334 333 333 333 333 332 331 331 329 329
290 290 290 290 290 290 291 292 293 294 294 296 297 298 300 302 297 297 298 301 303 305 303 303 305 301 303 301 300 302 302 303 304 308 306 308 309 311 312 315 318 321 325 329 331 335 336 336 337 338 337 336 335 334 333 333 332 331 328 325 321 316 317 317 318 319 320 320 322 328 330 333 332 333 333 333 333 332 333 332 332 332 332 330 329
290 289 290 291 290 290 291 291 292 293 293 294 296 297 297 298 296 296 297 300 301 301 300 301 300 299 299 299 301 300 301 302 303 306 307 309 307 309 311 313 316 320 324 327 329 333 335 336 337 337 336 335 333 331 331 330 329 329 325 322 317 316 317 319 318 317 317 319 320 331 332 330 331 331 332 331 332 332 332 331 331 331 330 330 329
289 289 290 292 290 290 290 290 293 292 293 293 296 294 296 297 296 295 295 296 298 299 298 299 299 298 299 299 299 300 301 301 305 307 308 304 304 307 309 312 315 319 324 327 329 331 333 334 336 335 335 332 330 329 329 328 327 324 321 319 317 318 318 317 315 314 315 318 321 330 330 331 330 329 330 330 331 331 331 330 330 331 330 330 330
289 291 290 290 289 290 290 290 291 292 293 293 294 293 297 296 295 295 295 295 297 296 296 297 298 298 298 298 299 300 300 300 301 302 302 303 303 304 307 309 312 316 322 327 329 331 331 331 333 333 331 330 329 328 327 326 324 322 320 319 320 319 316 313 313 312 312 314 321 327 329 329 331 330 329 330 331 331 331 331 331 331 330 331 331
290 289 288 289 289 290 289 290 291 291 292 292 292 295 296 295 294 295 294 294 296 295 295 296 296 297 298 298 299 299 299 299 300 300 301 302 302 303 306 308 310 313 319 326 329 330 330 331 331 330 328 329 328 327 327 325 323 321 321 321 320 317 314 311 310 310 311 314 320 324 327 328 328 330 331 331 331 331 332 332 332 332 331 331 331
287 288 288 288 291 289 289 290 290 292 292 292 292 292 293 294 293 295 293 293 295 294 294 295 296 296 297 298 297 297 298 298 299 300 300 301 301 303 304 307 309 312 317 325 328 330 330 330 330 329 328 328 326 325 324 323 322 321 321 320 317 313 311 309 309 308 309 312 317 321 324 328 329 329 330 332 331 331 332 333 334 333 332 331 331
287 288 288 288 290 288 290 290 291 293 292 292 291 291 292 294 295 295 292 296 294 293 294 295 296 295 296 297 298 297 297 297 298 298 300 301 301 302 304 307 309 312 316 324 328 328 328 329 329 329 328 327 324 322 321 321 320 320 318 315 312 311 309 308 307 307 308 310 313 317 319 323 328 330 329 331 331 331 331 332 333 333 333 332 332
287 288 288 288 288 291 290 289 291 291 292 292 290 290 292 293 293 292 291 296 293 293 294 295 295 295 296 296 297 296 296 297 297 298 300 300 302 303 304 306 308 311 316 322 328 328 327 328 328 327 326 325 323 320 319 317 315 315 313 311 309 308 307 306 306 306 306 307 309 313 314 319 323 326 330 331 332 332 332 332 333 334 332 333 334
288 288 287 288 288 290 289 290 291 292 293 291 290 290 291 292 292 292 291 294 292 293 295 294 294 295 295 296 296 296 296 297 297 299 299 300 302 303 304 305 308 311 315 322 328 328 328 328 327 325 325 323 320 317 314 311 311 310 309 308 307 306 305 304 304 303 304 304 304 305 308 313 317 320 326 330 331 332 333 333 333 334 334 333 333
288 287 288 288 291 289 289 290 291 294 292 290 290 290 291 291 293 292 291 291 293 295 294 294 294 295 295 295 296 297 297 298 298 299 300 301 302 304 305 306 308 311 316 324 326 326 326 326 326 325 324 318 314 313 310 308 307 307 306 305 304 304 303 303 302 302 301 301 302 302 303 307 310 314 320 326 329 331 331 333 334 334 335 334 332
287 288 288 289 289 289 289 290 291 292 292 290 291 289 290 290 293 292 291 293 294 294 294 294 294 294 295 295 296 297 298 299 299 300 301 302 303 305 307 309 310 313 320 325 325 323 323 319 320 321 316 313 310 309 308 306 305 304 304 303 302 301 301 300 300 300 299 299 300 300 300 301 304 308 312 319 324 327 329 332 333 335 336 335 335
288 288 288 289 288 289 291 291 291 291 289 290 289 289 289 290 290 291 293 295 293 294 294 294 294 294 295 295 296 297 299 299 300 302 303 304 308 312 316 315 316 319 323 323 319 318 316 314 314 313 310 308 306 305 305 303 301 301 301 300 300 299 299 299 298 298 298 298 298 298 298 299 299 302 306 310 316 323 325 328 330 331 331 331 331
289 289 288 289 291 291 292 292 293 291 292 289 292 288 289 289 291 289 294 294 292 293 294 294 294 294 295 295 297 298 299 300 301 302 304 309 310 310 311 312 314 316 316 316 315 314 312 311 310 309 307 306 304 303 301 300 299 299 299 299 298 298 298 297 297 296 297 296 297 297 297 298 298 298 299 303 309 314 321 324 326 329 329 329 328
289 288 288 288 289 289 293 291 293 290 289 288 289 288 290 288 288 289 291 292 293 293 295 295 294 294 296 296 297 298 300 300 302 303 307 307 307 307 308 309 310 311 311 311 310 309 308 307 307 304 303 302 302 301 300 298 298 297 297 297 297 297 296 296 296 295 295 295 295 295 296 297 297 297 297 298 301 308 312 318 322 323 325 326 325
288 288 288 290 288 288 291 288 289 289 288 290 288 288 288 288 288 292 290 292 292 294 295 295 295 295 296 296 297 298 299 300 302 305 305 305 305 305 305 306 307 308 307 307 307 305 305 304 304 303 300 299 299 298 298 297 297 296 296 296 296 296 295 295 294 294 294 294 294 294 294 295 296 296 297 296 297 300 306 309 314 317 320 322 322
288 288 288 288 288 288 289 288 289 288 288 288 288 288 288 288 288 288 289 290 289 291 294 295 295 295 295 295 296 297 299 299 301 304 304 304 303 303 303 304 305 305 305 305 304 303 302 301 301 301 300 298 297 296 296 296 295 295 295 295 295 295 294 294 294 294 294 293 293 293 293 293 294 295 294 295 296 296 300 304 306 309 312 317 320
289 291 289 288 288 288 288 291 291 288 288 288 289 289 288 288 287 287 290 288 288 289 291 293 293 294 294 294 295 296 298 298 299 302 304 303 302 302 302 302 303 303 303 302 302 302 301 300 298 299 299 298 296 295 294 294 294 294 294 294 294 294 294 294 294 294 293 292 291 291 292 292 293 293 294 294 294 295 295 298 301 302 306 310 315
290 289 289 289 288 288 290 288 290 287 288 288 288 289 288 287 287 287 287 287 287 288 289 290 291 290 291 292 294 296 297 298 298 300 301 303 302 302 301 301 301 301 301 301 300 300 299 298 296 296 296 296 295 294 293 293 292 292 292 292 293 293 294 294 294 294 293 292 292 292 292 292 292 292 292 293 293 294 294 295 295 296 297 305 309
290 290 291 288 288 288 288 288 287 287 288 288 288 288 287 287 287 286 287 287 286 289 288 288 289 289 291 292 293 293 295 297 298 299 300 301 301 301 301 301 301 300 299 299 299 299 298 297 296 295 294 294 295 294 293 292 292 291 291 291 292 292 292 292 292 292 292 292 291 292 291 292 291 291 292 292 293 293 293 294 295 295 296 299 304
289 289 289 289 288 288 288 289 288 287 288 287 289 288 287 287 286 285 284 286 286 288 287 286 288 289 290 290 291 292 293 295 297 298 299 300 300 301 301 300 300 299 298 298 298 298 298 298 297 297 295 293 293 295 295 295 292 290 291 290 290 292 292 292 291 291 291 292 292 291 292 291 291 291 291 292 292 292 293 293 293 294 295 295 297
291 290 289 289 288 288 289 289 288 287 286 287 288 287 287 287 286 284 283 284 285 285 285 286 287 288 287 288 290 290 291 292 295 296 298 299 299 300 300 300 299 298 298 298 298 298 297 296 296 295 296 294 293 295 296 299 294 291 289 288 289 290 291 291 291 291 291 292 292 291 291 290 290 290 291 291 291 292 292 292 293 294 294 295 295
289 289 289 289 289 289 289 289 288 288 288 289 290 287 287 288 286 285 285 284 283 285 284 286 286 286 286 286 288 287 289 290 291 294 294 295 297 298 299 300 300 299 296 296 296 296 296 296 295 295 294 296 295 296 297 299 293 293 293 293 290 290 291 291 291 290 291 291 291 291 291 290 289 290 291 290 290 290 291 292 292 293 293 294 295
288 288 289 289 289 292 290 289 289 288 287 288 294 289 289 290 287 287 286 285 285 288 285 285 285 286 286 286 286 286 287 288 289 290 291 291 292 295 297 299 300 300 298 297 296 295 295 295 295 295 296 293 293 295 297 297 295 295 294 294 293 293 290 289 287 288 289 288 289 289 289 288 288 288 288 288 289 289 290 291 291 292 292 293 294
289 289 289 289 292 290 290 289 288 288 288 291 289 289 290 287 286 286 286 285 283 283 284 285 285 287 287 285 285 286 286 287 287 288 290 289 290 291 293 296 298 299 299 299 298 298 298 299 299 298 296 294 292 294 295 296 296 296 295 293 292 292 293 289 286 286 287 287 288 288 289 288 287 287 287 287 287 287 287 287 288 289 289 290 292
289 290 288 290 289 290 290 289 288 288 288 287 288 290 288 286 285 285 285 284 283 283 284 284 284 284 284 284 285 285 285 286 287 287 288 290 288 289 290 291 291 293 296 296 297 298 298 299 299 298 296 296 295 293 292 294 295 295 295 297 297 295 289 287 291 288 285 287 286 287 287 287 287 286 286 286 286 286 287 287 288 288 289 289 290
290 289 288 289 290 290 290 289 289 289 289 289 288 293 286 286 286 285 285 284 283 283 283 284 283 284 284 283 284 284 284 285 286 286 286 288 287 287 288 289 290 290 293 291 292 292 294 295 296 295 295 295 295 293 293 293 295 294 294 295 294 293 292 289 288 287 285 285 285 284 285 287 287 287 286 285 285 285 286 287 287 287 288 289 289
290 288 288 289 290 291 290 291 290 292 290 289 288 290 287 287 286 284 288 287 284 284 285 285 285 286 283 283 283 284 284 284 285 285 286 287 288 286 286 287 288 289 291 288 288 290 292 292 294 294 294 295 294 294 292 293 293 292 293 292 291 292 292 295 292 290 288 284 283 285 285 284 284 285 285 285 285 285 285 286 287 286 287 288 287
288 289 289 289 289 290 291 291 292 290 290 287 290 286 291 287 285 285 284 286 286 288 287 285 285 284 282 283 282 283 284 283 284 285 285 285 288 286 285 286 287 288 290 287 286 287 287 288 288 290 292 293 294 294 293 292 292 290 290 289 290 290 291 293 290 287 283 281 281 280 280 282 282 283 283 284 284 285 285 285 285 285 286 286 285
289 289 289 289 289 289 291 292 292 292 291 288 288 287 287 291 284 284 284 284 285 285 283 283 283 283 282 282 282 283 283 283 283 284 284 285 285 285 285 285 285 287 289 284 285 285 285 285 285 287 288 290 289 290 291 289 291 291 291 290 287 287 288 287 287 284 283 283 283 280 280 279 278 280 282 282 283 283 284 284 284 285 284 284 284
289 287 288 288 288 289 290 290 292 292 292 290 288 286 285 287 285 285 284 284 284 283 284 284 283 283 283 282 282 283 282 283 283 283 284 283 285 287 285 285 286 287 286 284 284 284 285 284 284 285 285 286 286 286 287 287 287 288 289 288 288 288 287 285 285 285 281 279 280 280 279 279 279 279 280 282 282 282 282 283 283 283 283 283 283
Wind_Speed
6 11 9 14 22 23 23 22 22 23 23 23 23 23 22 23 23 23 22 22 23 23 23 17 16 16 14 14 10 9 8 11 10 11 9 8 7 7 7 7 6 6 6 6 5 5 5 3 5 5 6 4 4 5 7 6 6 5 7 7 9 10 9 9 8 8 6 6 7 6 8 8 7 7 7 7 10 12 10 10 7 4 4 6 9
13 12 10 12 24 24 23 21 23 23 23 23 22 22 22 22 23 22 22 22 23 23 22 22 18 14 14 15 13 11 9 10 11 10 9 9 8 9 8 8 8 7 7 7 7 6 6 6 6 5 6 6 9 9 7 5 4 6 7 8 9 10 10 9 8 7 7 7 8 9 10 10 8 7 5 8 11 13 9 10 9 4 3 9 10
9 10 9 11 22 24 24 23 25 23 23 22 22 22 22 22 22 22 22 21 22 22 22 22 22 19 17 15 14 13 10 11 9 9 9 10 11 10 9 7 7 6 8 8 7 7 6 7 8 6 6 6 7 5 4 5 5 5 6 7 8 9 10 9 8 8 7 8 9 8 7 8 9 9 10 10 11 13 10 9 9 5 5 11 10
8 8 8 11 18 21 23 23 24 24 23 22 22 22 22 22 22 21 21 21 21 21 21 22 21 22 19 16 16 14 14 12 9 8 10 13 12 12 11 10 8 7 10 8 8 8 7 8 9 9 8 7 6 6 6 6 5 6 6 7 6 9 10 9 8 8 6 7 8 6 3 3 4 7 8 11 10 12 9 9 10 9 10 10 11
7 6 7 7 9 14 22 23 24 23 23 23 22 22 21 22 22 22 21 20 20 21 20 21 21 21 22 21 19 14 14 15 12 10 11 13 13 12 12 10 9 8 7 11 8 9 9 9 10 10 8 8 7 7 6 7 7 7 7 7 7 8 9 9 9 8 6 8 7 5 2 3 4 6 8 9 10 9 6 8 8 9 10 10 9
6 5 6 7 7 11 22 23 24 24 24 23 22 21 21 21 21 21 21 20 20 20 20 20 21 21 21 21 21 18 14 13 14 12 13 13 13 12 13 12 11 10 13 13 11 11 10 10 10 9 8 7 8 8 8 8 8 8 8 8 8 8 8 8 8 7 6 8 5 1 1 1 2 4 11 9 7 7 8 7 8 8 6 6 6
6 5 6 7 7 11 22 22 23 24 24 23 22 23 21 20 21 21 21 20 20 20 20 20 20 21 21 20 21 21 20 13 13 13 12 15 13 13 14 14 13 12 11 11 12 12 12 11 10 10 8 10 10 9 9 9 8 8 9 9 9 9 8 8 7 6 3 2 1 0 0 1 1 3 8 8 8 6 8 6 9 8 8 7 6
6 5 6 6 6 13 22 22 22 23 23 23 24 23 22 21 20 21 21 21 20 19 20 20 20 20 20 20 21 21 22 20 16 14 14 15 15 15 15 14 13 13 13 14 15 14 13 13 13 11 11 11 10 10 10 9 9 9 9 9 9 8 7 5 5 5 3 2 1 1 4 3 3 3 8 8 7 7 3 7 8 7 8 6 5
7 6 6 7 6 16 22 21 22 22 23 23 23 23 22 21 20 20 21 21 21 20 20 20 20 19 20 20 21 21 22 22 20 19 15 14 18 17 18 16 15 16 15 14 14 15 13 14 14 12 13 11 11 11 10 9 10 10 10 9 9 8 6 5 2 2 2 1 2 4 4 4 3 3 7 8 8 8 5 3 4 7 7 5 5
6 6 5 5 7 14 22 21 22 22 23 23 24 22 21 21 21 21 21 21 21 21 21 20 20 20 20 20 21 21 21 21 21 20 19 17 14 20 18 17 18 17 17 14 17 13 14 15 14 14 13 13 13 12 11 10 10 10 9 9 9 8 7 3 2 3 1 1 1 3 5 6 4 4 6 9 8 9 7 6 6 6 4 4 4
5 5 5 5 6 16 20 21 22 22 22 22 23 22 22 21 22 22 23 22 21 21 20 20 20 19 19 20 20 21 21 22 21 20 20 21 19 14 17 18 16 18 17 17 15 13 12 15 15 15 14 14 14 13 12 11 11 10 10 9 8 8 6 3 3 2 1 3 2 2 6 11 4 5 7 9 8 9 8 7 7 8 7 5 4
5 5 5 4 7 13 19 19 21 21 22 22 22 22 20 22 22 22 22 21 20 19 21 20 20 19 19 19 19 20 20 21 22 21 21 20 21 18 11 19 19 17 15 14 15 15 14 16 17 15 15 14 15 14 13 13 11 11 10 9 9 7 6 4 2 0 2 3 1 1 6 5 5 5 8 10 9 10 9 9 8 9 7 5 5
5 6 5 4 5 11 17 18 20 20 21 22 22 21 21 20 21 22 23 21 20 20 20 21 21 20 20 19 19 19 19 20 21 21 20 19 20 20 18 14 20 19 19 16 17 16 15 15 16 16 15 15 15 14 14 13 12 11 11 10 9 6 5 4 2 1 1 1 1 2 4 4 3 7 8 6 9 10 10 9 10 9 6 6 6
5 7 6 5 5 10 15 17 20 20 21 21 21 21 21 21 20 20 23 22 21 20 21 21 20 20 19 19 19 19 19 19 20 20 20 19 19 19 19 17 14 18 15 17 18 18 15 14 16 16 15 16 16 14 14 13 13 12 11 10 8 5 5 3 4 1 1 0 1 3 4 3 3 7 6 7 8 9 8 9 8 6 6 7 7
5 7 7 5 5 5 12 14 19 20 20 20 21 21 21 21 21 21 22 22 21 21 21 21 21 20 19 18 18 19 20 20 20 21 20 19 19 18 19 17 17 15 18 17 17 15 15 14 13 15 16 16 16 15 14 13 12 12 11 10 7 5 6 2 2 2 2 1 1 3 4 4 6 8 7 6 6 9 8 7 8 7 6 6 8
4 5 6 6 6 5 5 9 15 19 19 19 20 21 21 20 21 21 22 22 22 22 21 21 21 20 19 18 19 19 19 20 20 20 20 18 17 18 18 17 17 17 16 17 17 14 13 16 17 15 16 16 16 15 15 14 13 12 11 9 7 6 6 5 2 2 1 2 1 3 5 4 8 7 7 6 4 6 9 8 7 7 8 8 9
6 6 6 7 6 5 5 5 9 16 14 18 18 19 21 21 21 22 22 22 22 21 22 22 21 20 19 19 19 19 19 20 20 20 18 18 18 18 17 17 17 18 17 18 17 17 18 19 16 16 11 15 17 16 15 15 13 13 10 8 6 5 5 5 2 1 0 1 1 3 5 3 7 8 7 7 7 7 8 9 9 9 10 9 7
6 6 7 6 6 6 5 5 6 6 7 10 13 17 20 20 21 22 22 22 22 22 22 21 20 19 19 19 18 18 19 20 19 18 18 18 18 18 17 16 16 17 19 12 13 17 18 17 19 17 16 13 16 16 15 14 12 10 10 8 6 5 3 4 2 1 1 1 3 3 3 6 9 8 8 7 7 7 8 8 9 8 8 9 10
6 6 6 6 7 6 6 6 5 5 7 7 7 9 17 18 21 22 22 22 21 22 22 21 20 18 18 18 18 19 19 19 17 18 19 18 18 16 16 16 16 17 18 13 17 17 16 18 17 16 16 15 12 15 15 13 11 10 10 8 6 4 3 2 2 1 0 1 3 5 4 10 11 9 7 7 7 8 8 9 10 11 10 8 5
5 5 6 6 6 7 6 6 6 6 6 6 7 7 10 17 18 20 22 21 21 21 21 20 19 18 18 18 18 17 15 12 17 15 17 18 16 15 17 17 17 17 18 18 16 17 17 17 18 18 16 16 17 17 12 12 11 10 10 8 6 5 3 2 2 2 1 1 2 3 6 11 11 11 10 9 8 8 8 9 9 11 8 7 8
5 6 6 7 7 7 8 7 6 6 6 6 6 6 7 14 11 16 20 20 20 21 20 19 17 15 15 15 16 10 8 9 10 9 16 12 15 17 18 19 18 17 18 17 16 18 16 16 18 18 17 16 12 12 10 11 11 11 10 9 7 4 2 3 3 4 3 1 1 3 8 10 10 9 9 9 9 10 10 9 9 7 8 8 8
8 7 6 6 6 7 8 8 7 8 7 6 5 5 6 8 8 9 10 13 15 17 14 13 14 9 14 11 8 8 8 8 9 12 10 12 13 18 18 19 18 18 17 16 16 15 13 15 18 17 17 15 13 7 7 10 13 12 11 10 6 4 3 3 4 4 3 3 2 3 4 8 8 8 7 8 9 10 10 10 9 11 12 9 8
8 7 8 8 7 7 7 8 8 8 8 6 5 5 6 6 7 8 9 13 12 13 12 12 9 10 10 8 8 7 8 9 9 11 12 16 14 17 18 18 17 17 16 16 15 13 14 16 18 18 17 14 9 5 5 6 7 12 10 6 4 4 5 5 4 4 4 3 3 5 4 4 10 8 8 8 8 9 9 10 11 9 7 9 9
6 6 7 6 6 6 7 6 7 8 8 7 7 6 6 6 6 7 8 9 9 10 11 10 9 10 10 9 8 9 9 8 12 15 14 8 8 13 15 16 16 16 15 11 11 9 10 13 13 14 11 6 5 5 5 6 6 6 5 5 5 4 5 5 5 4 4 4 4 8 5 5 3 6 8 9 10 9 7 8 8 8 6 8 10
4 6 5 7 7 7 8 8 8 7 7 7 7 8 7 6 6 7 7 8 8 9 9 9 9 10 10 9 10 10 8 8 8 8 8 8 7 7 7 7 8 9 12 8 5 5 8 6 6 7 4 6 7 5 5 5 5 6 5 5 6 6 6 5 4 4 4 4 5 10 9 5 3 5 7 8 10 10 10 9 9 7 8 9 10
4 6 7 7 8 7 7 7 7 6 6 6 7 7 8 7 7 7 7 8 8 9 9 8 8 9 9 9 10 10 9 8 8 8 8 8 8 6 6 6 7 8 9 7 5 5 7 7 7 7 5 6 6 6 6 7 6 5 5 6 7 7 6 5 5 5 4 4 7 12 11 7 5 5 8 9 11 11 12 13 12 11 11 11 12
5 5 5 5 6 6 7 7 7 7 8 7 6 6 6 5 5 6 8 9 8 9 8 8 8 9 9 9 9 9 9 8 8 8 8 7 8 7 6 6 6 8 8 9 5 4 7 7 6 5 5 5 5 5 4 5 5 7 6 8 7 7 6 5 5 5 4 5 7 14 14 15 8 5 7 11 12 13 14 15 15 14 13 13 13
3 5 5 6 6 8 6 6 7 7 7 7 7 7 6 6 5 6 6 9 9 9 9 8 9 9 9 9 8 8 9 9 8 8 8 7 8 7 7 6 5 7 8 8 6 4 2 6 5 7 8 6 7 6 6 5 5 6 9 8 8 7 6 6 6 5 4 5 5 12 17 17 16 10 5 10 13 15 15 16 16 15 15 14 14
4 5 5 6 6 6 6 7 6 7 7 7 7 7 6 6 5 5 5 7 8 8 9 9 8 8 8 8 8 8 8 8 9 8 8 8 7 8 7 6 6 7 7 7 5 4 6 4 5 6 6 6 7 7 7 7 7 6 8 9 8 7 6 6 6 6 6 5 5 10 17 17 18 19 16 5 10 13 15 16 17 16 16 14 13
4 4 5 5 5 6 6 7 6 7 7 6 6 7 7 7 6 5 5 5 7 8 8 8 8 8 8 8 8 8 8 8 9 8 8 8 8 8 8 6 6 6 7 8 3 3 3 5 6 6 6 7 8 7 8 8 7 8 8 8 7 7 6 6 6 6 5 5 4 6 16 18 19 20 19 15 8 6 13 15 17 17 16 16 17
3 4 4 5 5 5 7 6 6 5 5 6 6 7 7 7 7 5 4 5 7 5 6 7 7 7 8 9 9 8 8 8 8 9 8 8 7 7 7 7 5 7 7 6 0 1 1 2 5 9 8 9 7 7 9 9 8 8 7 9 8 7 6 6 7 5 6 5 5 6 8 15 17 18 19 21 21 20 7 14 15 17 18 17 16
4 5 4 4 5 5 7 6 6 6 6 6 6 7 8 7 7 6 5 6 5 5 6 7 8 7 8 8 7 7 8 8 9 9 8 8 7 7 7 6 6 6 7 2 3 4 4 8 6 6 12 9 9 8 7 9 8 8 7 8 7 7 7 5 6 6 5 6 5 6 6 8 14 17 19 21 21 22 21 8 3 15 19 20 24
4 3 4 4 5 5 6 8 6 6 6 6 6 6 7 7 7 7 5 4 5 5 5 7 8 7 8 7 7 7 7 7 8 8 9 7 7 6 5 1 4 4 2 6 7 6 8 9 8 9 10 10 10 8 9 8 8 6 7 7 7 7 6 5 6 7 7 6 7 6 6 6 7 12 18 20 22 22 21 21 15 20 19 21 21
4 4 3 4 4 3 3 5 6 7 7 6 6 7 7 7 7 7 6 5 5 5 5 5 6 7 7 7 7 7 8 7 8 9 8 6 8 7 7 8 7 7 7 6 7 6 7 8 7 8 9 10 10 7 9 8 7 7 7 6 7 6 5 7 7 7 6 7 6 6 5 6 6 7 9 16 20 22 23 22 22 18 19 20 18
3 4 4 4 4 5 3 5 6 6 6 7 6 7 6 7 8 7 7 6 5 5 5 6 7 5 7 8 9 9 9 9 9 9 8 8 8 8 9 9 8 8 8 7 7 8 8 8 6 10 8 10 10 7 8 8 7 8 7 6 8 5 7 7 6 6 6 5 6 6 5 6 6 6 8 7 12 20 21 23 22 20 20 18 17
4 4 4 3 4 5 4 4 5 7 7 7 6 6 7 6 7 7 8 7 6 6 5 6 7 7 8 8 10 10 10 10 9 8 8 9 8 8 9 9 9 8 8 8 8 8 8 9 8 6 11 7 8 8 6 8 7 9 6 7 6 6 7 6 7 7 6 6 6 6 6 7 6 6 7 6 6 9 19 20 21 22 19 16 14
4 4 4 4 4 5 5 5 6 7 7 7 8 6 8 8 7 8 8 8 7 7 7 5 5 6 8 8 9 8 9 10 10 8 8 8 8 9 9 9 9 9 9 8 9 7 7 9 9 8 9 10 8 9 8 7 7 9 8 9 8 7 7 6 6 5 5 7 6 7 7 7 7 7 6 6 6 6 12 18 18 19 20 15 12
4 3 4 3 4 4 4 4 5 5 5 5 7 7 7 7 7 7 7 8 8 7 6 7 6 5 5 7 9 8 8 9 10 9 7 8 8 8 9 10 9 9 9 9 9 7 8 9 11 9 7 9 9 8 9 8 8 7 8 8 7 6 6 6 6 6 6 7 7 7 6 5 6 6 6 6 6 6 6 11 15 15 16 18 17
4 4 4 3 2 3 3 4 4 5 6 5 5 6 5 5 6 7 7 7 8 8 7 7 7 7 8 8 8 8 8 9 9 9 8 8 8 9 9 9 8 7 8 9 9 9 9 9 11 10 10 9 9 8 8 9 10 9 9 8 8 7 6 7 6 5 5 6 7 6 5 6 5 5 6 5 5 5 6 6 6 6 8 15 14
4 4 4 3 3 3 3 3 4 4 4 5 5 5 6 7 8 8 8 9 8 8 8 8 8 8 9 9 9 8 8 8 8 7 8 8 8 8 8 8 7 8 8 9 7 7 9 11 10 12 13 11 9 8 8 10 10 10 10 8 8 8 8 6 6 6 5 6 6 5 5 5 5 5 5 4 4 4 4 4 5 5 5 8 13
3 3 4 4 3 2 3 5 4 4 4 5 6 6 7 8 5 6 5 7 7 7 8 8 8 8 9 9 9 8 8 8 7 7 8 8 7 7 8 8 7 6 7 8 8 8 8 8 9 7 10 11 7 5 6 7 9 7 7 8 8 8 8 8 8 6 7 5 5 5 4 4 4 4 4 3 4 4 4 4 4 4 4 4 6
5 4 4 4 4 3 3 4 4 4 3 3 3 3 1 2 3 5 3 6 6 7 7 8 8 8 8 9 9 10 10 9 9 8 8 7 7 7 7 7 7 7 7 6 8 8 9 7 7 8 4 6 6 3 2 1 3 4 5 3 5 5 6 6 6 6 5 5 4 4 4 3 4 3 3 3 4 4 4 4 3 4 3 4 4
4 4 4 4 3 3 4 4 4 4 4 2 1 2 2 3 2 4 4 5 3 2 3 4 5 7 8 9 9 10 10 9 10 9 8 8 7 6 6 6 6 5 5 6 6 6 5 5 4 7 7 3 4 0 1 1 4 4 3 5 1 3 0 3 3 4 4 4 4 3 3 3 4 3 3 3 3 3 4 3 3 3 3 3 4
5 5 4 4 3 3 4 4 4 3 4 3 1 1 2 2 2 3 4 2 4 4 4 5 7 7 8 7 8 8 9 9 9 8 7 7 7 6 6 5 5 5 6 7 7 6 5 5 4 3 2 5 3 3 3 2 3 5 3 2 3 3 2 2 0 1 2 3 2 2 1 1 1 1 1 2 2 3 3 3 4 3 3 3 3
6 6 5 4 3 4 4 4 4 4 4 3 3 3 3 5 5 4 1 4 2 5 5 6 7 6 7 7 7 7 8 8 8 9 8 7 7 7 6 5 5 5 4 4 5 5 6 5 4 4 3 5 4 2 1 2 3 0 3 4 3 1 2 2 3 0 1 1 1 1 1 1 2 1 1 1 1 0 1 1 2 2 3 3 3
6 6 5 5 4 4 3 3 3 3 4 4 3 1 1 2 5 6 8 6 6 7 8 7 7 7 6 5 6 6 6 6 7 8 8 7 8 7 6 6 5 5 5 4 3 2 2 2 2 4 5 3 6 5 3 2 2 3 4 3 2 3 4 3 1 2 0 2 2 3 2 3 2 3 2 2 1 1 1 2 2 2 2 2 2
7 5 5 5 5 4 3 3 3 3 4 4 3 2 1 1 0 1 1 1 3 4 3 3 4 5 3 4 5 5 5 6 6 6 6 6 6 7 6 6 6 6 5 5 5 3 2 1 1 1 1 2 2 2 5 4 1 2 3 3 2 2 6 7 4 3 1 2 3 3 3 3 5 4 4 5 6 5 5 5 5 5 4 3 3
6 5 5 5 5 6 5 4 3 3 3 3 3 3 2 1 1 2 1 2 2 4 5 5 4 3 5 4 4 4 4 4 5 5 5 5 5 6 6 6 6 6 5 5 5 4 4 3 2 1 1 0 0 2 3 3 3 2 1 0 0 1 3 1 3 6 4 3 2 1 2 3 3 4 3 3 4 4 4 4 4 4 4 4 3
6 5 5 6 5 5 5 5 5 3 3 3 3 4 4 3 2 2 4 4 3 4 4 3 4 3 4 4 4 3 3 3 3 4 4 4 4 4 4 5 5 5 3 5 4 4 4 3 3 2 1 1 0 1 1 2 1 2 2 0 1 1 1 2 1 3 3 3 1 3 3 1 2 5 4 4 5 5 5 5 4 4 4 4 4
6 4 5 5 5 5 5 5 8 6 2 2 3 4 4 3 3 3 4 5 4 5 3 5 4 3 4 5 4 4 3 3 3 3 4 3 4 3 3 4 4 3 3 3 4 4 4 4 3 3 2 0 2 2 1 2 1 2 1 2 2 1 2 2 0 2 2 1 4 5 6 7 6 5 5 5 5 5 5 4 4 4 5 5 4
5 4 6 5 5 5 5 6 8 6 5 4 1 3 4 4 4 4 5 5 5 4 5 7 6 5 4 5 4 5 4 3 3 2 1 2 3 3 3 3 2 2 3 4 3 2 3 2 3 3 2 1 1 1 1 1 1 0 1 2 5 4 4 4 5 4 2 1 2 0 2 5 4 1 4 4 4 4 4 4 5 5 5 5 4
Wind_Direction
354 333 336 337 338 344 342 339 339 342 341 341 341 342 344 342 341 341 341 338 336 338 338 341 341 339 336 321 311 304 302 289 241 247 240 233 238 247 218 201 189 184 171 168 182 179 182 177 166 174 158 161 160 128 100 103 108 105 110 111 111 107 99 87 91 90 92 96 88 88 105 118 114 108 109 111 120 116 106 103 90 75 74 88 82
328 333 338 339 340 343 343 340 342 343 340 340 342 341 342 342 341 341 341 339 336 338 339 337 336 335 336 332 323 307 300 277 282 279 255 234 236 239 238 222 200 187 183 175 180 196 192 177 188 212 153 159 129 127 124 120 116 125 113 117 119 117 110 108 110 111 111 122 120 114 127 122 128 118 109 137 126 115 119 116 116 112 125 104 98
324 333 334 332 339 341 341 340 344 344 343 341 342 342 341 340 341 340 340 339 337 336 339 339 335 334 337 333 326 315 299 288 269 270 268 256 240 237 233 246 260 225 188 184 186 190 188 189 194 182 172 184 169 153 143 129 142 138 148 130 134 131 121 120 127 120 119 126 104 104 101 107 107 103 107 106 122 119 126 128 125 127 129 112 109
336 323 325 331 334 336 339 340 343 343 343 342 343 343 340 339 339 340 340 338 337 336 336 336 336 334 336 329 329 324 318 300 277 252 261 259 247 237 231 225 215 231 246 198 185 195 192 196 190 195 177 178 187 160 154 145 150 163 158 158 146 140 133 131 134 130 137 102 70 69 81 66 74 113 111 118 120 119 122 116 106 105 114 116 113
330 314 318 325 324 326 336 343 344 344 344 344 342 342 340 340 338 338 339 338 337 336 334 333 335 336 333 333 328 323 317 310 293 267 255 243 245 243 237 227 226 220 234 242 192 199 197 195 197 205 179 182 183 175 163 157 160 162 167 164 161 152 143 146 145 147 138 99 86 76 96 118 118 121 114 120 112 98 97 111 114 107 110 111 99
316 306 317 325 323 324 339 347 347 346 345 343 342 341 339 340 338 338 337 338 337 335 334 333 333 333 333 330 326 326 321 313 305 284 264 255 248 252 242 232 223 215 213 224 209 193 201 198 210 209 189 185 184 167 165 167 166 160 165 164 163 167 157 148 136 147 144 130 85 47 48 144 148 134 131 130 121 122 130 140 140 131 113 102 102
315 310 325 324 328 328 342 349 349 349 347 345 347 343 338 338 339 338 337 336 335 336 335 333 332 332 330 328 327 325 321 320 310 301 274 259 251 245 243 238 222 222 217 215 224 204 195 196 209 201 187 188 182 172 174 173 166 164 163 166 166 171 169 151 138 136 128 118 75 346 235 246 251 128 147 138 142 149 141 143 134 126 120 119 110
319 321 324 326 327 328 347 349 351 350 350 350 347 344 339 339 341 338 337 334 333 333 334 332 331 329 328 328 328 327 324 324 325 318 303 270 249 239 238 235 233 220 218 217 219 215 201 191 199 196 191 195 181 179 182 178 174 167 168 165 171 178 167 158 149 141 138 123 147 220 201 191 235 143 149 157 159 146 175 147 137 121 116 117 123
321 326 322 327 324 325 349 350 350 350 352 351 351 347 345 342 340 341 339 336 332 331 333 332 330 329 327 327 328 327 326 323 325 320 313 288 261 249 239 234 230 222 218 218 217 216 218 199 195 197 192 187 183 184 182 178 174 173 170 174 178 181 182 185 131 131 83 129 180 211 176 178 223 165 151 150 153 158 154 104 141 138 131 145 173
324 319 320 320 320 330 351 351 351 352 352 353 352 349 347 342 340 341 340 338 333 332 331 331 329 327 327 327 326 324 323 321 320 317 312 308 284 255 246 240 233 226 221 213 222 213 223 212 195 196 197 188 187 185 185 178 179 180 179 177 186 190 197 192 138 70 110 34 330 161 168 171 201 166 165 154 158 154 143 116 98 102 130 124 120
323 317 319 323 319 345 352 353 353 353 354 354 354 352 349 348 346 345 340 339 335 332 332 330 328 326 327 326 325 323 322 319 315 314 309 308 308 290 267 260 245 234 229 222 218 218 230 225 198 194 197 191 190 186 182 180 183 182 187 188 191 195 198 192 109 69 337 48 7 171 174 182 184 175 184 160 145 140 141 143 141 144 150 128 131
325 323 323 326 338 341 354 354 354 354 355 354 356 355 353 352 350 349 347 341 336 334 332 331 328 328 326 324 324 323 320 318 314 312 310 310 314 314 294 254 260 254 241 230 229 219 217 230 207 191 194 194 192 187 180 181 184 185 190 198 202 198 187 190 110 131 25 43 24 213 171 173 174 204 175 171 165 157 156 163 170 172 167 135 126
325 337 335 343 331 336 352 355 354 354 355 355 353 353 351 348 346 347 347 344 336 335 334 332 329 326 324 323 323 321 320 317 313 312 311 313 313 313 312 280 249 247 239 235 228 226 216 222 215 198 191 191 196 187 182 181 184 188 191 200 206 202 174 174 118 85 53 37 90 188 146 153 179 198 159 159 167 177 174 174 184 176 156 161 141
331 344 345 342 329 335 346 353 354 354 354 353 353 351 351 350 345 342 346 344 339 337 335 330 328 323 321 322 321 320 319 317 312 313 315 315 314 308 310 314 286 253 250 235 234 225 218 226 220 201 192 189 195 190 185 183 186 188 192 199 205 195 173 177 119 115 58 58 155 185 143 155 199 164 155 165 178 184 193 180 171 165 179 170 162
342 340 338 340 329 326 341 349 353 354 354 352 352 352 351 351 351 344 346 343 340 337 334 332 328 323 320 321 320 319 318 315 313 312 315 316 311 306 308 312 313 282 243 237 234 228 223 222 232 220 197 195 194 191 187 186 188 190 190 200 198 190 187 125 116 92 82 78 161 194 147 157 169 149 145 157 188 201 182 168 182 184 167 177 160
342 329 338 333 329 329 329 343 345 352 351 351 351 351 350 349 349 346 342 341 338 336 334 333 329 325 322 321 321 318 316 315 313 313 312 311 314 316 314 313 312 306 255 241 233 232 225 227 220 220 211 196 197 191 185 191 191 189 188 198 192 181 195 130 156 127 97 54 125 242 158 175 157 149 148 157 176 182 182 180 187 184 173 183 169
338 335 342 331 330 334 333 335 339 346 345 349 349 350 350 348 349 346 342 340 338 336 333 331 331 326 324 323 321 319 316 316 314 310 311 315 319 320 317 316 319 320 303 241 233 223 221 216 224 217 208 211 196 193 192 195 195 190 179 191 190 184 200 145 154 195 90 105 159 229 175 177 158 162 165 172 182 163 166 168 180 180 173 184 168
335 338 338 331 333 335 334 333 333 336 339 341 342 345 349 350 348 345 343 340 338 337 333 330 330 328 326 324 321 319 320 316 312 310 314 318 318 315 315 319 316 314 315 268 238 226 217 213 218 210 209 209 206 195 194 195 195 186 171 179 187 188 187 155 142 233 115 226 182 196 232 170 172 174 177 180 182 176 172 171 173 178 189 177 189
330 336 331 337 334 332 335 332 334 338 336 338 335 335 343 350 350 347 343 339 337 337 335 330 327 326 327 325 321 323 322 315 312 312 316 314 313 315 319 317 313 310 311 280 248 241 223 215 215 209 203 209 218 211 193 189 186 174 165 171 181 163 161 107 154 153 202 195 172 187 243 182 176 179 185 188 182 181 189 195 192 199 192 183 198
320 330 334 333 330 336 334 334 335 339 337 333 327 329 331 348 350 349 345 339 337 336 336 332 326 325 325 323 323 325 319 316 313 316 313 313 316 319 317 316 313 308 305 305 260 245 231 216 216 207 205 214 204 212 191 182 179 167 160 163 168 138 141 122 133 112 124 204 168 202 241 196 184 181 184 194 199 205 202 208 199 209 190 200 194
339 337 341 337 338 338 332 337 339 338 335 330 323 324 326 342 346 345 346 339 336 333 333 333 327 326 324 323 324 318 311 319 315 308 314 314 314 318 317 314 312 306 302 302 286 259 243 225 221 213 212 200 202 204 190 177 175 161 158 160 146 133 132 118 105 105 100 57 80 241 259 212 199 192 190 196 214 220 219 217 213 209 204 184 206
332 331 330 335 339 337 334 334 338 339 334 328 319 320 322 337 342 341 342 341 334 332 331 331 331 325 325 325 315 315 317 313 313 314 311 310 314 317 314 309 309 303 297 296 296 255 248 245 227 219 215 196 194 197 183 177 164 161 158 155 147 139 112 100 88 88 71 40 27 313 260 221 213 199 200 204 218 226 226 221 227 213 217 199 205
336 336 329 338 339 327 327 331 335 334 333 327 321 318 324 337 341 341 342 343 333 336 332 331 330 328 321 317 314 312 312 311 310 307 306 307 312 312 310 309 305 300 293 287 287 267 243 247 221 218 214 193 182 182 177 161 168 157 149 144 129 110 108 97 88 69 55 37 7 13 12 262 226 226 217 216 220 229 234 233 222 216 218 204 214
314 317 312 315 323 327 326 323 330 330 334 329 328 325 330 343 341 341 341 342 333 335 333 328 326 325 322 316 315 312 311 307 306 310 309 309 304 308 310 312 308 302 290 280 271 271 235 246 209 212 205 169 171 180 177 170 158 148 140 141 106 106 94 93 88 75 58 40 19 33 29 6 278 246 240 241 239 226 234 220 195 203 201 206 203
281 298 321 329 330 331 334 334 334 328 330 328 332 331 335 338 337 336 338 341 334 337 329 326 324 322 321 317 314 313 311 307 306 306 306 302 303 304 306 308 306 302 296 271 255 213 213 225 203 196 175 184 176 182 167 159 145 145 138 114 109 102 93 83 80 70 53 31 25 33 29 10 319 258 248 247 250 238 223 226 215 209 205 203 188
319 344 331 326 324 324 330 326 325 323 324 325 327 326 334 333 337 336 337 344 341 337 328 323 321 324 318 319 316 316 310 307 305 305 303 302 301 302 300 301 301 299 296 278 244 212 195 206 197 177 163 173 170 178 166 155 146 130 120 108 112 106 97 87 74 71 47 32 31 28 28 18 343 292 260 252 248 247 234 225 226 218 208 203 197
321 316 320 314 313 322 327 329 326 325 325 327 329 334 327 319 322 326 349 341 344 336 332 322 325 322 322 321 322 317 312 307 305 304 303 304 298 297 294 295 293 292 289 285 249 218 192 197 181 162 157 153 142 148 138 114 126 127 113 100 97 96 96 88 81 73 53 42 35 25 29 26 8 286 261 252 249 244 241 232 221 224 217 205 205
317 318 323 321 318 319 322 329 326 329 325 335 336 333 325 322 325 341 343 338 342 336 332 327 327 324 322 320 317 314 311 307 304 301 299 299 295 292 289 288 283 286 286 287 264 224 265 185 186 161 161 149 143 123 99 104 98 107 101 97 94 92 88 82 79 73 56 46 38 34 30 25 24 19 274 245 247 245 240 238 229 218 220 215 207
331 322 313 324 317 311 321 329 326 325 326 332 335 328 324 329 334 335 327 332 342 333 329 326 322 322 321 319 318 315 308 304 300 299 298 294 292 289 286 276 275 278 283 277 257 214 217 218 188 160 141 134 123 116 106 90 91 86 96 98 97 94 90 86 77 65 53 34 21 34 32 28 30 26 25 325 249 244 240 237 229 221 220 211 198
288 287 313 312 309 317 324 325 322 319 324 337 334 336 335 324 320 318 305 321 329 334 325 327 321 325 328 325 318 315 306 302 300 298 300 293 289 285 278 269 269 274 278 272 221 230 234 199 183 135 123 127 122 112 105 103 93 90 91 97 91 89 88 87 80 71 63 53 28 20 24 25 28 25 26 37 28 282 244 238 230 224 217 202 191
297 306 316 316 312 324 322 322 323 323 336 341 334 332 325 321 314 306 304 305 316 321 330 326 326 324 326 318 316 313 312 302 297 299 295 290 286 282 274 266 260 268 258 261 129 189 196 239 177 151 133 110 98 100 105 99 94 90 93 98 96 91 79 77 76 74 65 53 46 32 23 19 17 22 24 30 33 29 329 230 228 220 212 179 181
311 306 294 299 318 319 317 321 326 328 339 340 334 332 328 317 311 308 298 299 303 317 331 330 329 324 322 315 308 313 314 310 303 297 292 290 285 277 261 242 254 258 245 228 68 55 54 55 17 124 112 105 104 94 91 102 95 92 92 87 87 89 82 73 73 66 64 59 46 45 27 16 7 11 24 28 34 41 36 60 182 221 198 170 144
276 259 286 313 318 321 328 321 324 329 338 337 330 321 321 324 318 316 304 302 311 315 330 334 327 321 318 308 307 305 323 314 302 300 305 287 286 306 333 331 260 264 76 91 85 71 70 65 61 83 81 95 95 90 86 82 82 76 89 78 85 78 76 73 73 69 62 57 56 46 44 28 9 3 19 24 25 38 51 54 69 89 99 112 118
282 297 321 317 312 314 315 315 327 336 329 333 333 333 330 324 322 315 314 313 307 323 330 325 326 326 316 316 323 323 340 330 325 328 319 338 4 7 14 18 14 33 49 53 66 67 77 84 83 75 86 94 92 86 101 89 78 76 69 68 77 71 69 71 66 65 59 56 53 50 43 40 18 6 10 14 24 28 40 53 56 74 97 100 100
294 307 307 292 311 308 320 328 324 327 331 334 339 334 332 334 328 323 322 324 310 317 317 331 338 328 337 345 350 350 349 340 342 346 0 14 17 18 22 23 22 30 47 33 64 69 73 74 66 93 75 89 91 83 84 84 85 74 66 70 74 62 65 64 62 58 59 57 53 48 43 44 29 23 14 15 13 26 27 40 51 65 80 85 99
295 286 298 316 320 317 327 330 324 332 334 330 331 329 332 330 328 325 326 330 334 332 331 333 333 341 351 349 353 354 353 347 353 2 20 24 22 22 22 24 25 35 45 46 49 60 81 78 60 77 102 80 92 85 82 80 76 79 68 67 62 57 66 58 58 58 54 57 54 50 42 43 36 31 28 14 12 18 24 28 37 38 50 79 93
277 290 292 306 316 317 328 338 331 330 330 330 331 340 341 342 335 330 329 331 344 342 341 334 327 342 354 352 347 349 350 351 351 3 33 35 33 33 28 28 34 37 44 48 51 47 66 81 65 52 77 88 62 89 82 74 76 76 73 68 59 57 59 59 57 49 50 55 51 51 49 43 45 36 32 25 14 21 18 27 26 29 31 39 85
286 287 275 263 282 297 305 315 314 327 327 329 330 333 334 332 337 336 333 338 338 340 341 345 353 352 358 359 355 359 1 3 358 352 17 44 49 44 42 38 40 44 46 50 49 51 59 72 79 58 53 79 83 67 78 73 69 67 66 59 54 51 48 51 55 54 50 53 49 46 45 43 43 42 38 33 24 21 23 20 23 19 24 38 50
299 307 303 283 290 295 310 323 322 327 332 332 330 330 332 335 337 348 345 343 342 340 346 356 357 357 11 5 7 6 1 7 9 9 13 22 46 55 57 47 47 52 58 56 57 57 66 70 84 79 62 59 77 75 77 84 75 66 58 56 60 50 50 48 46 39 43 51 56 50 46 39 42 39 44 35 27 29 26 25 23 19 7 26 51
303 314 315 326 316 318 328 316 314 319 320 335 336 344 349 355 349 347 352 348 341 348 348 359 356 5 3 3 4 7 3 9 13 18 29 27 28 37 50 53 64 75 69 67 64 66 79 85 78 92 96 85 77 87 84 83 78 69 62 55 53 57 50 49 46 44 42 52 48 43 44 38 36 34 37 33 28 32 33 28 34 24 6 9 28
308 327 326 321 311 293 332 327 309 320 350 355 350 353 349 343 350 355 333 329 332 346 347 350 355 359 360 1 3 7 4 5 16 19 36 49 42 37 42 43 39 51 74 85 86 86 84 94 98 85 102 106 92 103 115 110 104 77 71 61 56 51 57 51 50 47 49 50 47 48 38 35 32 31 26 28 32 30 26 29 24 28 18 4 9
318 330 321 303 290 302 309 299 313 325 334 326 318 326 320 321 280 288 308 304 335 355 344 347 348 346 359 4 5 2 4 9 4 13 24 34 52 58 53 50 51 50 64 72 85 97 104 102 112 95 59 105 116 164 206 236 49 132 132 93 64 63 57 50 46 45 43 41 45 43 28 24 38 29 13 30 32 28 29 27 23 23 14 13 19
284 290 281 307 312 308 297 296 293 307 310 287 317 329 305 330 22 298 317 309 272 311 315 307 334 350 357 2 5 2 3 7 6 6 13 13 23 44 70 86 75 73 72 61 58 60 65 90 101 120 124 81 107 182 237 273 124 119 120 98 87 71 11 67 46 32 31 39 29 33 26 23 35 20 14 14 16 19 25 26 21 24 11 9 15
313 318 318 311 299 297 296 296 292 289 298 302 273 260 261 290 304 288 301 257 272 319 338 337 354 2 7 2 7 5 2 4 5 9 13 13 11 20 10 26 70 94 108 110 107 103 94 84 87 75 61 100 36 49 19 8 128 134 113 109 152 141 147 237 150 10 45 27 36 19 340 37 74 51 19 22 6 6 357 7 15 8 357 356 17
312 305 299 295 278 281 279 270 274 276 271 282 292 311 341 352 344 333 337 346 357 350 358 355 356 352 356 6 356 5 7 8 5 7 11 13 13 12 14 20 28 20 34 78 104 123 134 139 142 127 108 131 120 144 344 103 156 343 143 104 72 298 249 108 125 25 54 323 252 214 253 227 202 202 193 191 160 136 358 359 350 341 331 344 355
303 293 288 281 276 281 274 275 267 267 264 264 251 306 54 46 6 6 351 357 343 348 0 344 340 351 338 312 346 4 8 13 14 9 9 14 13 10 13 16 15 15 19 28 36 53 63 116 159 142 137 168 146 146 152 232 198 189 211 183 185 179 164 178 138 268 358 241 241 216 223 206 209 209 196 187 176 183 192 210 221 244 251 268 266
279 284 299 297 293 276 257 241 250 251 259 258 242 199 352 44 90 205 228 285 314 285 283 295 307 313 321 347 338 345 6 17 10 15 13 13 16 14 13 14 14 13 13 25 29 18 5 357 344 23 121 137 141 122 162 177 204 265 221 212 190 226 155 139 195 120 273 204 216 220 227 210 218 215 202 195 185 185 192 192 196 201 204 212 211
271 300 294 295 294 296 300 288 249 245 247 252 241 210 220 216 314 317 295 290 264 271 302 304 303 310 332 341 338 347 349 10 15 12 15 13 19 18 14 17 17 9 17 21 11 355 15 3 10 16 25 355 343 142 175 190 161 225 188 143 62 128 170 351 154 165 155 165 232 274 282 245 253 251 232 216 201 199 199 198 198 199 199 205 204
276 267 277 282 288 288 299 302 297 261 242 244 233 230 209 191 206 221 297 281 255 264 289 300 314 334 338 332 348 330 344 350 11 16 8 14 20 19 19 21 24 11 19 15 11 15 22 18 7 15 359 324 331 344 54 234 278 220 117 22 71 128 308 21 80 58 125 118 250 201 232 270 259 253 246 220 218 205 203 207 203 200 203 211 201
272 277 278 282 281 291 297 308 301 303 282 230 234 236 216 187 178 207 235 280 303 305 323 311 315 333 333 323 327 335 338 341 350 5 9 5 13 17 28 29 17 12 27 14 16 18 14 19 8 1 15 14 350 4 261 287 268 272 205 169 132 58 30 28 357 74 41 72 173 203 200 180 206 239 215 226 218 213 208 206 204 210 214 212 214
286 290 285 278 283 289 288 298 283 292 296 296 214 231 226 203 211 210 219 244 263 280 309 315 321 332 327 310 319 317 313 319 326 337 5 358 357 14 18 8 23 27 31 18 10 10 2 17 2 21 29 29 352 26 23 17 13 309 273 185 204 195 171 177 203 193 146 133 70 281 178 209 205 255 243 213 218 222 215 210 209 219 219 221 225